Location: *
(46.1833°N, 22.7667°E)
Time: 02:32:35
(UTC+00:00)

Cosmos 1602 Rocket - Pass Details

Date: 17 September 2019
Orbit: 603 x 634 km, 82.5° (Epoch: 15 October)

Event Time Altitude Azimuth Distance (km) Brightness Sun altitude
Rises 18:56:58 0° 355° (N) 2,892 7.5 -23.7°
Reaches altitude 10° 18:59:16 10° 1° (N) 1,978 6.5 -24.1°
Enters shadow 19:02:13 36° 28° (NNE) 967 4.5 -24.5°
